Regional Weather Roundup
Issued by NWS State College, PA

Current Version | Previous Version | Text Only | Print | Product List | Glossary On
Versions: 1 2 3 4 5 6 7 8 9 10 11 12 13 14 15 16 17 18 19 20 21 22 23 24 25 26 27 28 29 30 31 32 33 34 35 36 37 38 39 40 41 42 43 44 45 46 47 48 49 50
000
ASUS41 KCTP 081203
RWRCTP

REGIONAL WEATHER ROUNDUP
NATIONAL WEATHER SERVICE STATE COLLEGE PA
700 AM EST THU DEC 08 2016

Note: "fair" indicates few or no clouds below 12,000 feet with no
significant weather and/or obstructions to visibility.

* = STATION THAT DOES NOT REPORT PRECIPITATION /E.G. RAIN...SNOW...ETC/
    THUNDER OR FOG.

PAZ002>004-007>009-013>016-020>023-029>032-081300-
WESTERN PENNSYLVANIA

CITY           SKY/WX    TMP DP  RH WIND       PRES   REMARKS
ERIE           CLOUDY    32  22  66 SW13G23   29.97S
MEADVILLE      CLOUDY    28  20  71 SW13      29.97S
FRANKLIN*        N/A     28  18  64 W9        29.98R
NEW CASTLE     CLOUDY    29  22  75 W10       30.03R
BEAVER COUNTY  CLOUDY    30  23  74 W6        30.01
BUTLER*        CLEAR     28  19  69 SW8       30.03R
PITTSBURGH INT CLOUDY    33  24  69 SW8       30.02R
PITTSBURGH     CLOUDY    31  20  63 SW10      30.01S
INDIANA*       CLOUDY    30  25  80 W9        30.02S
LATROBE        PTCLDY    32  23  69 SW12      30.03S
WASHINGTON CO* MOCLDY    30  19  64 SW6       30.04S
$$

PAZ004>006-010>012-017>019-024>028-033>037-041-042-045-046-049>053-081300-
CENTRAL PENNSYLVANIA

CITY           SKY/WX    TMP DP  RH WIND       PRES   REMARKS
BRADFORD       CLOUDY    28  22  78 W7        29.90S
DUBOIS         PTCLDY    27  20  75 SW10      29.93S
CLEARFIELD     PTCLDY    28  22  78 SW7       29.95S
JOHNSTOWN      CLOUDY    27  19  72 SW8       29.94S
ALTOONA        CLOUDY    32  19  58 W12       29.98S
STATE COLLEGE  PTCLDY    30  19  64 SW7       29.96F
WILLIAMSPORT   MOCLDY    34  22  61 W6        29.97F
SELINSGROVE    CLOUDY    29  29 100 NW3       30.00F
FT INDIANTOWN  CLOUDY    30  27  88 CALM      30.00S
CAPITAL CITY   CLOUDY    34  26  72 CALM      30.02R
HARRISBURG     CLOUDY    33  30  88 CALM      30.01R
YORK           CLOUDY    32  27  81 CALM      30.01R
$$

PAZ038>040-043-044-047-048-054-055-060>062-067>071-081300-
EASTERN PENNSYLVANIA

CITY           SKY/WX    TMP DP  RH WIND       PRES   REMARKS
SCRANTON       MOCLDY    34  23  64 S5        29.94F
MOUNT POCONO   CLOUDY    29  20  69 W10       29.89F
ALLENTOWN      CLOUDY    31  25  78 SW5       29.98F
QUAKERTOWN*    CLOUDY    28  28 100 CALM      30.00S
READING        CLOUDY    33  26  75 VRB3      29.99F
LANCASTER      CLOUDY    30  30 100 CALM      30.01S
COATESVILLE    CLOUDY    34  23  64 CALM      30.00F
POTTSTOWN      CLOUDY    31  28  89 CALM      30.01F
BLUE BELL      CLOUDY    32  32 100 CALM      30.00R
DOYLESTOWN     CLOUDY    33  30  88 CALM      29.99S
WILLOW GROVE   NOT AVBL
NORTH PHILA    MOCLDY    34  30  85 CALM      30.03F
PHILADELPHIA   CLOUDY    37  29  72 SW6       30.03F
$$



USA.gov is the U.S. government's official web portal to all federal, state and local government web resources and services.